Regional Weather Roundup
Issued by NWS

Home | Current Version | Previous Version | Text Only | Print | Product List | Glossary Off
Versions: 1 2 3 4 5 6 7 8 9 10 11 12 13 14 15 16 17 18 19 20 21 22 23 24 25 26 27 28 29 30 31 32 33 34 35 36 37 38 39 40 41 42 43 44 45 46 47 48 49 50

000
ASUS44 KMEG 191700
RWRTN
TENNESSEE HOURLY STATE WEATHER ROUNDUP
NATIONAL WEATHER SERVICE MEMPHIS TN
1200 PM CDT THU APR 19 2018

TNZ002-004-019-021-049-052-054-088>092-191800-
WEST TENNESSEE

CITY           SKY/WX    TMP DP  RH WIND       PRES   REMARKS
MEMPHIS INTL   PTSUNNY   53  34  48 N13G20    30.33R
NWS MEMPHIS      N/A     50 N/A N/A MISG        N/A
JACKSON        PTSUNNY   50  29  44 N13G20    30.33R
DYERSBURG      PTSUNNY   50  30  46 N10G16    30.36R
$$

TNZ008-025-027-028-033-062-065-066-191800-
NORTH MIDDLE TENNESSEE

CITY           SKY/WX    TMP DP  RH WIND       PRES   REMARKS
NASHVILLE      PTSUNNY   48  28  46 NW13G20   30.30R
CLARKSVILLE    CLOUDY    46  28  49 N9G21     30.33R
SMYRNA         PTSUNNY   46  29  51 N14       30.30R
CROSSVILLE     FAIR      44  27  51 N12       30.20R
$$

TNZ061-075-076-078-094-096-097-191800-
SOUTH MIDDLE TENNESSEE

CITY           SKY/WX    TMP DP  RH WIND       PRES   REMARKS
$$

TNZ017-018-042-046-047-191800-
NORTHEAST TENNESSEE

CITY           SKY/WX    TMP DP  RH WIND       PRES   REMARKS
TRI CITIES     PTSUNNY   46  31  55 W15G22    30.12R
$$

TNZ012-013-036-069-073-074-191800-
CENTRAL EAST TENNESSEE

CITY           SKY/WX    TMP DP  RH WIND       PRES   REMARKS
KNOXVILLE      PTSUNNY   50  32  50 NW8       30.17R
OAK RIDGE      PTSUNNY   52  31  44 VRB7      30.20R
$$

TNZ083-085-099-191800-
SOUTHEAST TENNESSEE

CITY           SKY/WX    TMP DP  RH WIND       PRES   REMARKS
CHATTANOOGA    PTSUNNY   53  31  42 N18G25    30.20R
$$

SKY/WX REPORTED AS FAIR MEANS FEW OR NO CLOUDS BELOW
12 THOUSAND FEET.




USA.gov is the U.S. government's official web portal to all federal, state and local government web resources and services.